When you browse on this site, cookies collect data to enhance your experience and personalize the content and advertising you see.
Visit our Privacy Policy to learn more. By continuing to use the site, you agree to this use of cookies and data.
  • en Suisse
  • Liste des pays
  • À 7 jours
  • Température de l'eau
  • Carte météo
  • Widgets météo
  • user-avatar
    Se connecter

    Météo par heure à Tonton

    Ce jour, 11 Décembre, Mercredi

    Heure Température Précipitation Vent Pression Humidité
    00:00 +3°C° 0 mm 5 m/s 755 mmHg 85%
    01:00 +3°C° 0 mm 5 m/s 755 mmHg 86%
    02:00 +3°C° 0 mm 5 m/s 755 mmHg 86%
    03:00 +4°C° 0 mm 4 m/s 755 mmHg 87%
    04:00 +4°C° 0 mm 4 m/s 754 mmHg 87%
    05:00 +3°C° 0 mm 5 m/s 753 mmHg 87%
    06:00 +3°C° 0 mm 5 m/s 753 mmHg 88%
    07:00 +3°C° 0 mm 5 m/s 752 mmHg 87%
    08:00 +3°C° 0 mm 5 m/s 751 mmHg 86%
    09:00 +3°C° 0 mm 5 m/s 751 mmHg 85%
    10:00 +3°C° 0.2 mm 6 m/s 750 mmHg 86%
    11:00 +4°C° 0.2 mm 7 m/s 750 mmHg 87%
    12:00 +3°C° 0.2 mm 9 m/s 749 mmHg 88%
    13:00 +4°C° 0.2 mm 8 m/s 749 mmHg 85%
    14:00 +4°C° 0.2 mm 7 m/s 749 mmHg 82%
    15:00 +4°C° 0.2 mm 6 m/s 749 mmHg 79%
    16:00 +3°C° 0 mm 6 m/s 749 mmHg 81%
    17:00 +2°C° 0 mm 5 m/s 750 mmHg 82%
    18:00 +1°C° 0 mm 5 m/s 751 mmHg 83%
    19:00 +1°C° 0 mm 5 m/s 751 mmHg 83%
    20:00 +1°C° 0 mm 5 m/s 751 mmHg 84%
    21:00 +1°C° 0 mm 5 m/s 752 mmHg 85%
    22:00 +1°C° 0 mm 5 m/s 752 mmHg 86%
    23:00 0°C° 0 mm 4 m/s 752 mmHg 87%

    Demain, 12 Décembre, Jeudi

    Heure Température Précipitation Vent Pression Humidité
    00:00 0°C° 0 mm 4 m/s 752 mmHg 87%
    01:00 0°C° 0 mm 4 m/s 751 mmHg 87%
    02:00 +1°C° 0 mm 4 m/s 751 mmHg 86%
    03:00 +1°C° 0 mm 4 m/s 750 mmHg 85%
    04:00 +1°C° 0 mm 4 m/s 749 mmHg 85%
    05:00 +1°C° 0 mm 4 m/s 748 mmHg 86%
    06:00 +2°C° 0 mm 5 m/s 747 mmHg 86%
    07:00 +3°C° 0.2 mm 6 m/s 746 mmHg 88%
    08:00 +4°C° 0.2 mm 7 m/s 744 mmHg 90%
    09:00 +5°C° 0.2 mm 8 m/s 743 mmHg 93%
    10:00 +6°C° 1.5 mm 8 m/s 741 mmHg 94%
    11:00 +6°C° 1.5 mm 8 m/s 739 mmHg 94%
    12:00 +7°C° 1.5 mm 8 m/s 737 mmHg 95%
    13:00 +8°C° 1.2 mm 7 m/s 735 mmHg 95%
    14:00 +8°C° 1.2 mm 6 m/s 734 mmHg 94%
    15:00 +8°C° 1.2 mm 5 m/s 732 mmHg 94%
    16:00 +8°C° 0.5 mm 6 m/s 732 mmHg 91%
    17:00 +8°C° 0.5 mm 7 m/s 731 mmHg 88%
    18:00 +6°C° 0.5 mm 9 m/s 731 mmHg 85%
    19:00 +6°C° 0.2 mm 10 m/s 731 mmHg 86%
    20:00 +4°C° 0.2 mm 11 m/s 731 mmHg 87%
    21:00 +3°C° 0.2 mm 12 m/s 731 mmHg 88%
    22:00 +3°C° 0.2 mm 12 m/s 731 mmHg 85%
    23:00 +3°C° 0.2 mm 11 m/s 732 mmHg 83%

    Après-demain, 13 Décembre, Vendredi

    Heure Température Précipitation Vent Pression Humidité
    00:00 +2°C° 0.2 mm 11 m/s 732 mmHg 81%
    01:00 +2°C° 0.1 mm 11 m/s 732 mmHg 78%
    02:00 +2°C° 0.1 mm 11 m/s 732 mmHg 76%
    03:00 +2°C° 0.1 mm 12 m/s 732 mmHg 74%
    04:00 +2°C° 0 mm 11 m/s 733 mmHg 76%
    05:00 +2°C° 0 mm 11 m/s 734 mmHg 77%
    06:00 +1°C° 0 mm 10 m/s 734 mmHg 78%
    07:00 +2°C° 0 mm 10 m/s 735 mmHg 79%
    08:00 +2°C° 0 mm 10 m/s 736 mmHg 80%
    09:00 +3°C° 0 mm 10 m/s 737 mmHg 81%
    10:00 +3°C° 0.1 mm 11 m/s 738 mmHg 79%
    11:00 +4°C° 0.1 mm 11 m/s 738 mmHg 77%
    12:00 +6°C° 0.1 mm 11 m/s 739 mmHg 75%
    13:00 +5°C° 0 mm 10 m/s 739 mmHg 76%
    14:00 +5°C° 0 mm 9 m/s 739 mmHg 76%
    15:00 +5°C° 0 mm 8 m/s 739 mmHg 76%
    16:00 +4°C° 0.2 mm 7 m/s 739 mmHg 81%
    17:00 +4°C° 0.2 mm 6 m/s 738 mmHg 86%
    18:00 +5°C° 0.2 mm 5 m/s 737 mmHg 91%
    19:00 +5°C° 0.7 mm 7 m/s 736 mmHg 89%
    20:00 +7°C° 0.7 mm 9 m/s 735 mmHg 88%
    21:00 +8°C° 0.7 mm 11 m/s 734 mmHg 86%
    22:00 +7°C° 0 mm 12 m/s 734 mmHg 82%
    23:00 +5°C° 0 mm 13 m/s 735 mmHg 78%

    14 Décembre, Samedi

    Heure Température Précipitation Vent Pression Humidité
    00:00 +4°C° 0 mm 14 m/s 735 mmHg 74%
    01:00 +4°C° 0 mm 13 m/s 736 mmHg 74%
    02:00 +3°C° 0 mm 11 m/s 737 mmHg 74%
    03:00 +2°C° 0 mm 10 m/s 738 mmHg 74%
    04:00 +2°C° 0.1 mm 9 m/s 738 mmHg 79%
    05:00 +2°C° 0.1 mm 9 m/s 738 mmHg 83%
    06:00 +2°C° 0.1 mm 8 m/s 739 mmHg 87%
    07:00 +2°C° 0.6 mm 9 m/s 739 mmHg 85%
    08:00 +2°C° 0.6 mm 10 m/s 739 mmHg 84%
    09:00 +2°C° 0.6 mm 11 m/s 740 mmHg 83%
    10:00 +2°C° 0.1 mm 11 m/s 740 mmHg 78%
    11:00 +3°C° 0.1 mm 11 m/s 741 mmHg 73%
    12:00 +3°C° 0.1 mm 12 m/s 741 mmHg 68%
    13:00 +2°C° 0.1 mm 11 m/s 742 mmHg 68%
    14:00 +2°C° 0.1 mm 10 m/s 742 mmHg 69%
    15:00 +2°C° 0.1 mm 9 m/s 742 mmHg 69%
    16:00 +1°C° 0 mm 9 m/s 742 mmHg 71%
    17:00 +1°C° 0 mm 8 m/s 742 mmHg 74%
    18:00 +2°C° 0 mm 7 m/s 742 mmHg 76%
    19:00 +2°C° 0 mm 6 m/s 742 mmHg 78%
    20:00 +2°C° 0 mm 5 m/s 741 mmHg 81%
    21:00 +2°C° 0 mm 5 m/s 741 mmHg 83%
    22:00 +3°C° 1.9 mm 6 m/s 739 mmHg 85%
    23:00 +4°C° 1.9 mm 7 m/s 737 mmHg 88%

    15 Décembre, Dimanche

    Heure Température Précipitation Vent Pression Humidité
    00:00 +5°C° 1.9 mm 8 m/s 736 mmHg 90%
    01:00 +3°C° 0.3 mm 9 m/s 736 mmHg 90%
    02:00 +1°C° 0.3 mm 10 m/s 736 mmHg 91%
    03:00 0°C° 0.3 mm 10 m/s 736 mmHg 91%
    04:00 +1°C° 0.3 mm 10 m/s 738 mmHg 87%
    05:00 +1°C° 0.3 mm 10 m/s 739 mmHg 84%
    06:00 +1°C° 0.3 mm 10 m/s 740 mmHg 80%
    07:00 +1°C° 0.1 mm 9 m/s 741 mmHg 80%
    08:00 +2°C° 0.1 mm 9 m/s 742 mmHg 80%
    09:00 +2°C° 0.1 mm 9 m/s 742 mmHg 81%
    10:00 +3°C° 0 mm 9 m/s 743 mmHg 78%
    11:00 +3°C° 0 mm 10 m/s 744 mmHg 75%
    12:00 +5°C° 0 mm 10 m/s 744 mmHg 72%
    13:00 +5°C° 0 mm 9 m/s 745 mmHg 73%
    14:00 +5°C° 0 mm 9 m/s 745 mmHg 74%
    15:00 +5°C° 0 mm 8 m/s 745 mmHg 74%
    16:00 +4°C° 0 mm 7 m/s 746 mmHg 75%
    17:00 +4°C° 0 mm 7 m/s 746 mmHg 76%
    18:00 +3°C° 0 mm 7 m/s 747 mmHg 77%
    19:00 +3°C° 0 mm 6 m/s 747 mmHg 78%
    20:00 +3°C° 0 mm 6 m/s 748 mmHg 79%
    21:00 +3°C° 0 mm 6 m/s 748 mmHg 80%
    22:00 +3°C° 0 mm 6 m/s 748 mmHg 81%
    23:00 +3°C° 0 mm 6 m/s 749 mmHg 82%

    16 Décembre, Lundi

    Heure Température Précipitation Vent Pression Humidité
    00:00 +3°C° 0 mm 6 m/s 749 mmHg 82%
    01:00 +2°C° 0 mm 5 m/s 749 mmHg 84%
    02:00 +3°C° 0 mm 4 m/s 749 mmHg 85%
    03:00 +3°C° 0 mm 3 m/s 749 mmHg 86%
    04:00 +4°C° 0.2 mm 4 m/s 748 mmHg 88%
    05:00 +4°C° 0.2 mm 4 m/s 748 mmHg 90%
    06:00 +5°C° 0.2 mm 4 m/s 748 mmHg 92%
    07:00 +6°C° 0.7 mm 5 m/s 748 mmHg 90%
    08:00 +5°C° 0.7 mm 6 m/s 747 mmHg 88%
    09:00 +7°C° 0.7 mm 6 m/s 747 mmHg 87%
    10:00 +7°C° 0.9 mm 6 m/s 747 mmHg 86%
    11:00 +7°C° 0.9 mm 6 m/s 747 mmHg 86%
    12:00 +7°C° 0.9 mm 6 m/s 747 mmHg 85%
    13:00 +6°C° 0.1 mm 5 m/s 748 mmHg 86%
    14:00 +6°C° 0.1 mm 4 m/s 748 mmHg 86%
    15:00 +6°C° 0.1 mm 4 m/s 748 mmHg 87%
    16:00 +5°C° 0 mm 3 m/s 748 mmHg 87%
    17:00 +5°C° 0 mm 2 m/s 748 mmHg 88%
    18:00 +5°C° 0 mm 2 m/s 749 mmHg 88%
    19:00 +4°C° 0 mm 2 m/s 749 mmHg 88%
    20:00 +4°C° 0 mm 2 m/s 749 mmHg 88%
    21:00 +4°C° 0 mm 2 m/s 749 mmHg 88%
    22:00 +4°C° 0 mm 2 m/s 750 mmHg 87%
    23:00 +4°C° 0 mm 2 m/s 750 mmHg 87%
    Voir plus